Time,TemperatureF,DewpointF,PressureIn,WindDirection,WindDirectionDegrees,WindSpeedMPH,WindSpeedGustMPH,Humidity,HourlyPrecipIn,Conditions,Clouds,dailyrainin,SoftwareType,DateUTC
2013-11-28 00:01:00,27.0,19.5,30.27,NNW,342,4.0,4.0,73,0.00,RA,,0.00,WeatherDisplay:10.37,2013-11-28 05:01:00,
2013-11-28 00:02:00,26.9,19.4,30.27,NNW,331,3.5,3.5,73,0.00,RA,,0.00,WeatherDisplay:10.37,2013-11-28 05:02:00,
2013-11-28 00:04:00,26.9,19.4,30.27,NW,323,3.5,3.5,73,0.00,RA,,0.00,WeatherDisplay:10.37,2013-11-28 05:04:00,
2013-11-28 00:09:00,26.9,19.4,30.27,NW,306,2.3,2.3,73,0.00,RA,,0.00,WeatherDisplay:10.37,2013-11-28 05:09:00,
2013-11-28 00:14:00,26.8,19.6,30.28,NNW,333,2.3,2.3,74,0.00,RA,,0.00,WeatherDisplay:10.37,2013-11-28 05:14:00,
2013-11-28 00:19:00,26.8,19.6,30.28,WNW,303,0.0,0.0,74,0.00,CLR,,0.00,WeatherDisplay:10.37,2013-11-28 05:19:00,
2013-11-28 00:24:00,26.7,19.5,30.28,West,265,3.5,3.5,74,0.00,CLR,,0.00,WeatherDisplay:10.37,2013-11-28 05:24:00,
2013-11-28 00:29:00,26.7,19.5,30.28,WNW,300,3.5,3.5,74,0.00,CLR,,0.00,WeatherDisplay:10.37,2013-11-28 05:29:00,
2013-11-28 00:34:00,26.6,19.4,30.28,West,259,2.3,2.3,74,0.00,CLR,,0.00,WeatherDisplay:10.37,2013-11-28 05:34:00,
2013-11-28 00:39:00,26.5,19.3,30.28,WSW,257,1.2,1.2,74,0.00,CLR,,0.00,WeatherDisplay:10.37,2013-11-28 05:39:00,
2013-11-28 00:44:00,26.4,19.5,30.29,SSW,195,2.3,2.3,75,0.00,CLR,,0.00,WeatherDisplay:10.37,2013-11-28 05:44:00,
2013-11-28 00:49:00,26.3,19.8,30.29,West,269,3.5,3.5,76,0.00,CLR,,0.00,WeatherDisplay:10.37,2013-11-28 05:49:00,
2013-11-28 00:54:00,26.3,19.8,30.28,West,269,0.0,0.0,76,0.00,CLR,,0.00,WeatherDisplay:10.37,2013-11-28 05:54:00,
2013-11-28 00:59:00,26.2,19.7,30.28,NW,305,0.0,0.0,76,0.00,CLR,,0.00,WeatherDisplay:10.37,2013-11-28 05:59:00,
2013-11-28 01:04:00,26.2,20.0,30.28,NW,305,0.0,0.0,77,0.00,CLR,,0.00,WeatherDisplay:10.37,2013-11-28 06:04:00,
2013-11-28 01:09:00,26.1,19.9,30.29,WNW,282,1.2,1.2,77,0.00,CLR,,0.00,WeatherDisplay:10.37,2013-11-28 06:09:00,
2013-11-28 01:14:00,26.0,19.8,30.28,West,281,0.0,0.0,77,0.00,CLR,,0.00,WeatherDisplay:10.37,2013-11-28 06:14:00,
2013-11-28 01:19:00,25.9,19.7,30.29,WSW,257,1.0,0.0,77,0.00,CLR,,0.00,WeatherDisplay:10.37,2013-11-28 06:19:00,
2013-11-28 01:24:00,25.9,19.7,30.29,WSW,245,3.5,3.5,77,0.00,CLR,,0.00,WeatherDisplay:10.37,2013-11-28 06:24:00,
2013-11-28 01:29:00,25.8,19.6,30.30,WNW,298,2.3,2.3,77,0.00,CLR,,0.00,WeatherDisplay:10.37,2013-11-28 06:29:00,
2013-11-28 01:34:00,25.7,19.5,30.30,North,350,0.0,0.0,77,0.00,CLR,,0.00,WeatherDisplay:10.37,2013-11-28 06:34:00,
2013-11-28 01:39:00,25.7,19.8,30.30,NNW,336,2.3,2.3,78,0.00,CLR,,0.00,WeatherDisplay:10.37,2013-11-28 06:39:00,
2013-11-28 01:44:00,25.6,19.7,30.30,NNW,327,1.2,0.0,78,0.00,CLR,,0.00,WeatherDisplay:10.37,2013-11-28 06:44:00,
2013-11-28 01:49:00,25.5,19.6,30.31,WNW,298,2.3,2.3,78,0.00,CLR,,0.00,WeatherDisplay:10.37,2013-11-28 06:49:00,
2013-11-28 01:54:00,25.4,19.5,30.31,NW,317,1.2,1.2,78,0.00,CLR,,0.00,WeatherDisplay:10.37,2013-11-28 06:54:00,
2013-11-28 01:59:00,25.4,19.8,30.31,WNW,294,4.6,4.6,79,0.00,CLR,,0.00,WeatherDisplay:10.37,2013-11-28 06:59:00,
2013-11-28 02:04:00,25.3,19.7,30.31,NW,311,3.5,3.5,79,0.00,CLR,,0.00,WeatherDisplay:10.37,2013-11-28 07:04:00,
2013-11-28 02:09:00,25.2,19.3,30.32,WNW,297,1.2,1.2,78,0.00,CLR,,0.00,WeatherDisplay:10.37,2013-11-28 07:09:00,
2013-11-28 02:14:00,25.2,19.6,30.31,WNW,292,2.3,2.3,79,0.00,CLR,,0.00,WeatherDisplay:10.37,2013-11-28 07:14:00,
2013-11-28 02:19:00,25.1,19.2,30.32,WNW,301,3.5,3.5,78,0.00,CLR,,0.00,WeatherDisplay:10.37,2013-11-28 07:19:00,
2013-11-28 02:24:00,25.0,19.1,30.32,NW,314,3.5,3.5,78,0.00,CLR,,0.00,WeatherDisplay:10.37,2013-11-28 07:24:00,
2013-11-28 02:29:00,25.0,19.1,30.33,NNW,348,3.5,3.5,78,0.00,CLR,,0.00,WeatherDisplay:10.37,2013-11-28 07:29:00,
2013-11-28 02:34:00,24.9,19.3,30.33,NNW,343,3.5,3.5,79,0.00,CLR,,0.00,WeatherDisplay:10.37,2013-11-28 07:34:00,
2013-11-28 02:39:00,24.8,18.9,30.33,NW,317,1.2,1.2,78,0.00,CLR,,0.00,WeatherDisplay:10.37,2013-11-28 07:39:00,
2013-11-28 02:44:00,24.8,19.2,30.33,WNW,302,1.2,1.2,79,0.00,CLR,,0.00,WeatherDisplay:10.37,2013-11-28 07:44:00,
2013-11-28 02:49:00,24.8,19.2,30.33,WSW,255,2.0,2.0,79,0.00,CLR,,0.00,WeatherDisplay:10.37,2013-11-28 07:49:00,
2013-11-28 02:54:00,24.7,19.1,30.33,NW,316,3.5,3.5,79,0.00,CLR,,0.00,WeatherDisplay:10.37,2013-11-28 07:54:00,
2013-11-28 02:59:00,24.8,19.5,30.33,NNE,27,1.2,1.2,80,0.00,CLR,,0.00,WeatherDisplay:10.37,2013-11-28 07:59:00,
2013-11-28 03:04:00,24.7,19.1,30.33,SW,236,2.3,2.3,79,0.00,CLR,,0.00,WeatherDisplay:10.37,2013-11-28 08:04:00,
2013-11-28 03:09:00,24.7,19.1,30.33,North,351,1.0,0.0,79,0.00,CLR,,0.00,WeatherDisplay:10.37,2013-11-28 08:09:00,
2013-11-28 03:14:00,24.6,19.0,30.34,WNW,302,2.3,2.3,79,0.00,CLR,,0.00,WeatherDisplay:10.37,2013-11-28 08:14:00,
2013-11-28 03:19:00,24.6,19.3,30.34,NW,304,2.3,2.3,80,0.00,CLR,,0.00,WeatherDisplay:10.37,2013-11-28 08:19:00,
2013-11-28 03:24:00,24.5,19.2,30.34,NW,312,2.3,2.3,80,0.00,CLR,,0.00,WeatherDisplay:10.37,2013-11-28 08:24:00,
2013-11-28 03:29:00,24.4,19.1,30.34,NW,306,3.5,3.5,80,0.00,CLR,,0.00,WeatherDisplay:10.37,2013-11-28 08:29:00,
2013-11-28 03:34:00,24.4,19.1,30.34,NW,311,3.5,3.5,80,0.00,CLR,,0.00,WeatherDisplay:10.37,2013-11-28 08:34:00,
2013-11-28 03:39:00,24.4,18.8,30.33,WNW,298,2.3,2.3,79,0.00,CLR,,0.00,WeatherDisplay:10.37,2013-11-28 08:39:00,
2013-11-28 03:44:00,24.3,18.7,30.33,NNW,331,2.3,2.3,79,0.00,CLR,,0.00,WeatherDisplay:10.37,2013-11-28 08:44:00,
2013-11-28 03:49:00,24.3,19.0,30.33,NW,313,1.2,0.0,80,0.00,CLR,,0.00,WeatherDisplay:10.37,2013-11-28 08:49:00,
2013-11-28 03:54:00,24.3,19.0,30.33,NW,321,2.3,2.3,80,0.00,CLR,,0.00,WeatherDisplay:10.37,2013-11-28 08:54:00,
2013-11-28 03:59:00,24.2,18.9,30.33,NNW,333,2.3,2.3,80,0.00,CLR,,0.00,WeatherDisplay:10.37,2013-11-28 08:59:00,
2013-11-28 04:04:00,24.2,18.9,30.33,NNW,331,3.5,3.5,80,0.00,CLR,,0.00,WeatherDisplay:10.37,2013-11-28 09:04:00,
2013-11-28 04:09:00,24.1,18.8,30.32,NW,319,3.5,3.5,80,0.00,CLR,,0.00,WeatherDisplay:10.37,2013-11-28 09:09:00,
2013-11-28 04:14:00,24.0,18.7,30.32,North,360,6.0,6.0,80,0.00,CLR,,0.00,WeatherDisplay:10.37,2013-11-28 09:14:00,
2013-11-28 04:19:00,24.0,18.7,30.33,North,9,2.0,2.0,80,0.00,CLR,,0.00,WeatherDisplay:10.37,2013-11-28 09:19:00,
2013-11-28 04:24:00,24.0,18.7,30.32,NNW,332,3.5,3.5,80,0.00,CLR,,0.00,WeatherDisplay:10.37,2013-11-28 09:24:00,
2013-11-28 04:29:00,24.0,18.7,30.32,NNW,345,3.5,3.5,80,0.00,CLR,,0.00,WeatherDisplay:10.37,2013-11-28 09:29:00,
2013-11-28 04:34:00,24.0,18.7,30.32,NW,320,0.0,0.0,80,0.00,CLR,,0.00,WeatherDisplay:10.37,2013-11-28 09:34:00,
2013-11-28 04:39:00,24.0,19.0,30.32,NNW,346,0.0,0.0,81,0.00,CLR,,0.00,WeatherDisplay:10.37,2013-11-28 09:39:00,
2013-11-28 04:44:00,23.9,18.9,30.32,North,351,0.0,0.0,81,0.00,CLR,,0.00,WeatherDisplay:10.37,2013-11-28 09:44:00,
2013-11-28 04:49:00,23.8,18.8,30.32,NNE,12,1.2,1.2,81,0.00,CLR,,0.00,WeatherDisplay:10.37,2013-11-28 09:49:00,
2013-11-28 04:54:00,23.8,19.1,30.32,NNE,32,0.0,0.0,82,0.00,CLR,,0.00,WeatherDisplay:10.37,2013-11-28 09:54:00,
2013-11-28 04:59:00,23.7,19.0,30.33,NNE,32,0.0,0.0,82,0.00,CLR,,0.00,WeatherDisplay:10.37,2013-11-28 09:59:00,
2013-11-28 05:04:00,23.6,18.9,30.33,NNE,32,0.0,0.0,82,0.00,CLR,,0.00,WeatherDisplay:10.37,2013-11-28 10:04:00,
2013-11-28 05:09:00,23.5,18.8,30.34,NNE,32,0.0,0.0,82,0.00,CLR,,0.00,WeatherDisplay:10.37,2013-11-28 10:09:00,
2013-11-28 05:14:00,23.4,18.7,30.34,NNE,32,0.0,0.0,82,0.00,CLR,,0.00,WeatherDisplay:10.37,2013-11-28 10:14:00,
2013-11-28 05:19:00,23.3,18.9,30.34,West,278,0.0,0.0,83,0.00,CLR,,0.00,WeatherDisplay:10.37,2013-11-28 10:19:00,
2013-11-28 05:24:00,23.3,18.9,30.34,West,278,1.2,1.2,83,0.00,CLR,,0.00,WeatherDisplay:10.37,2013-11-28 10:24:00,
2013-11-28 05:29:00,23.2,18.8,30.34,WNW,294,2.3,2.3,83,0.00,CLR,,0.00,WeatherDisplay:10.37,2013-11-28 10:29:00,
2013-11-28 05:34:00,23.2,18.8,30.34,WNW,293,1.2,1.2,83,0.00,CLR,,0.00,WeatherDisplay:10.37,2013-11-28 10:34:00,
2013-11-28 05:39:00,23.1,18.7,30.34,NW,308,0.0,0.0,83,0.00,CLR,,0.00,WeatherDisplay:10.37,2013-11-28 10:39:00,
2013-11-28 05:44:00,23.1,18.7,30.34,NW,315,1.2,1.2,83,0.00,CLR,,0.00,WeatherDisplay:10.37,2013-11-28 10:44:00,
2013-11-28 05:49:00,23.0,18.6,30.35,NW,315,1.0,0.0,83,0.00,CLR,,0.00,WeatherDisplay:10.37,2013-11-28 10:49:00,
2013-11-28 05:54:00,23.0,18.9,30.35,NW,315,1.2,1.2,84,0.00,CLR,,0.00,WeatherDisplay:10.37,2013-11-28 10:54:00,
2013-11-28 05:59:00,23.0,18.6,30.35,WNW,301,1.2,1.2,83,0.00,CLR,,0.00,WeatherDisplay:10.37,2013-11-28 10:59:00,
2013-11-28 06:04:00,22.9,18.5,30.35,WSW,246,0.0,0.0,83,0.00,CLR,,0.00,WeatherDisplay:10.37,2013-11-28 11:04:00,
2013-11-28 06:09:00,22.9,18.8,30.36,NNW,331,2.3,2.3,84,0.00,CLR,,0.00,WeatherDisplay:10.37,2013-11-28 11:09:00,
2013-11-28 06:14:00,22.9,18.8,30.36,WNW,291,1.2,1.2,84,0.00,CLR,,0.00,WeatherDisplay:10.37,2013-11-28 11:14:00,
2013-11-28 06:19:00,22.9,18.8,30.36,WNW,299,0.0,0.0,84,0.00,CLR,,0.00,WeatherDisplay:10.37,2013-11-28 11:19:00,
2013-11-28 06:24:00,22.8,18.7,30.37,WNW,299,1.2,0.0,84,0.00,CLR,,0.00,WeatherDisplay:10.37,2013-11-28 11:24:00,
2013-11-28 06:29:00,22.9,19.1,30.37,WNW,299,2.3,2.3,85,0.00,CLR,,0.00,WeatherDisplay:10.37,2013-11-28 11:29:00,
2013-11-28 06:34:00,22.8,18.7,30.37,WNW,299,0.0,0.0,84,0.00,CLR,,0.00,WeatherDisplay:10.37,2013-11-28 11:34:00,
2013-11-28 06:39:00,22.8,18.7,30.37,NNW,338,1.2,1.2,84,0.00,CLR,,0.00,WeatherDisplay:10.37,2013-11-28 11:39:00,
2013-11-28 06:44:00,22.8,18.7,30.37,NNW,338,0.0,0.0,84,0.00,CLR,,0.00,WeatherDisplay:10.37,2013-11-28 11:44:00,
2013-11-28 06:49:00,22.8,18.7,30.37,NNW,333,1.2,1.2,84,0.00,CLR,,0.00,WeatherDisplay:10.37,2013-11-28 11:49:00,
2013-11-28 06:54:00,22.7,18.9,30.38,WNW,287,0.0,0.0,85,0.00,CLR,,0.00,WeatherDisplay:10.37,2013-11-28 11:54:00,
2013-11-28 06:59:00,22.7,18.9,30.38,WNW,298,1.2,1.2,85,0.00,CLR,,0.00,WeatherDisplay:10.37,2013-11-28 11:59:00,
2013-11-28 07:04:00,22.7,18.9,30.39,WNW,298,1.2,0.0,85,0.00,CLR,,0.00,WeatherDisplay:10.37,2013-11-28 12:04:00,
2013-11-28 07:09:00,22.7,18.6,30.39,WNW,298,1.2,1.2,84,0.00,CLR,,0.00,WeatherDisplay:10.37,2013-11-28 12:09:00,
2013-11-28 07:14:00,22.6,18.8,30.39,WNW,298,0.0,0.0,85,0.00,CLR,,0.00,WeatherDisplay:10.37,2013-11-28 12:14:00,
2013-11-28 07:19:00,22.6,18.8,30.39,WNW,297,0.0,0.0,85,0.00,CLR,,0.00,WeatherDisplay:10.37,2013-11-28 12:19:00,
2013-11-28 07:24:00,22.6,18.8,30.39,WNW,298,0.0,0.0,85,0.00,CLR,,0.00,WeatherDisplay:10.37,2013-11-28 12:24:00,
2013-11-28 07:29:00,22.6,18.8,30.39,WNW,298,1.2,1.2,85,0.00,CLR,,0.00,WeatherDisplay:10.37,2013-11-28 12:29:00,
2013-11-28 07:34:00,22.5,18.7,30.39,WNW,298,0.0,0.0,85,0.00,CLR,,0.00,WeatherDisplay:10.37,2013-11-28 12:34:00,
2013-11-28 07:39:00,22.5,18.9,30.39,WNW,298,0.0,0.0,86,0.00,CLR,,0.00,WeatherDisplay:10.37,2013-11-28 12:39:00,
2013-11-28 07:44:00,22.5,18.9,30.39,WNW,298,0.0,0.0,86,0.00,CLR,,0.00,WeatherDisplay:10.37,2013-11-28 12:44:00,
2013-11-28 07:49:00,22.4,18.8,30.39,WNW,298,0.0,0.0,86,0.00,CLR,,0.00,WeatherDisplay:10.37,2013-11-28 12:49:00,
2013-11-28 07:54:00,22.4,18.8,30.40,WNW,298,0.0,0.0,86,0.00,CLR,,0.00,WeatherDisplay:10.37,2013-11-28 12:54:00,
2013-11-28 07:59:00,22.5,18.9,30.40,WNW,298,0.0,0.0,86,0.00,CLR,,0.00,WeatherDisplay:10.37,2013-11-28 12:59:00,
2013-11-28 08:04:00,22.5,18.9,30.40,WNW,298,0.0,0.0,86,0.00,CLR,,0.00,WeatherDisplay:10.37,2013-11-28 13:04:00,
2013-11-28 08:09:00,22.6,19.0,30.40,WNW,298,0.0,0.0,86,0.00,CLR,,0.00,WeatherDisplay:10.37,2013-11-28 13:09:00,
2013-11-28 08:14:00,22.7,19.1,30.41,WNW,298,0.0,0.0,86,0.00,CLR,,0.00,WeatherDisplay:10.37,2013-11-28 13:14:00,
2013-11-28 08:19:00,22.8,19.2,30.41,WNW,298,0.0,0.0,86,0.00,CLR,,0.00,WeatherDisplay:10.37,2013-11-28 13:19:00,
2013-11-28 08:24:00,23.0,19.4,30.41,WNW,298,0.0,0.0,86,0.00,CLR,,0.00,WeatherDisplay:10.37,2013-11-28 13:24:00,
2013-11-28 08:29:00,23.3,19.7,30.41,WNW,297,1.2,1.2,86,0.00,CLR,,0.00,WeatherDisplay:10.37,2013-11-28 13:29:00,
2013-11-28 08:34:00,23.5,19.7,30.42,WNW,297,2.3,0.0,85,0.00,CLR,,0.00,WeatherDisplay:10.37,2013-11-28 13:34:00,
2013-11-28 08:39:00,23.7,19.9,30.42,WNW,297,0.0,0.0,85,0.00,CLR,,0.00,WeatherDisplay:10.37,2013-11-28 13:39:00,
2013-11-28 08:44:00,24.1,20.0,30.43,NW,313,2.3,2.3,84,0.00,CLR,,0.00,WeatherDisplay:10.37,2013-11-28 13:44:00,
2013-11-28 08:49:00,24.4,20.0,30.43,NNW,346,2.0,2.0,83,0.00,CLR,,0.00,WeatherDisplay:10.37,2013-11-28 13:49:00,
2013-11-28 08:54:00,24.8,20.1,30.43,NNW,345,2.3,2.3,82,0.00,CLR,,0.00,WeatherDisplay:10.37,2013-11-28 13:54:00,
2013-11-28 08:59:00,25.2,20.2,30.43,NNW,330,1.2,1.2,81,0.00,CLR,,0.00,WeatherDisplay:10.37,2013-11-28 13:59:00,
2013-11-28 09:04:00,25.5,20.2,30.43,NNW,342,3.5,3.5,80,0.00,CLR,,0.00,WeatherDisplay:10.37,2013-11-28 14:04:00,
2013-11-28 09:09:00,25.9,20.3,30.44,North,355,3.5,3.5,79,0.00,CLR,,0.00,WeatherDisplay:10.37,2013-11-28 14:09:00,
2013-11-28 09:14:00,26.2,20.6,30.44,NNW,333,2.3,2.3,79,0.00,CLR,,0.00,WeatherDisplay:10.37,2013-11-28 14:14:00,
2013-11-28 09:19:00,26.5,20.6,30.44,West,281,3.5,3.5,78,0.00,CLR,,0.00,WeatherDisplay:10.37,2013-11-28 14:19:00,
2013-11-28 09:24:00,26.9,21.0,30.45,NNW,338,2.3,2.3,78,0.00,CLR,,0.00,WeatherDisplay:10.37,2013-11-28 14:24:00,
2013-11-28 09:29:00,27.2,20.6,30.45,NNW,346,2.3,2.3,76,0.00,CLR,,0.00,WeatherDisplay:10.37,2013-11-28 14:29:00,
2013-11-28 09:34:00,27.6,21.0,30.45,NNW,338,2.3,2.3,76,0.00,CLR,,0.00,WeatherDisplay:10.37,2013-11-28 14:34:00,
2013-11-28 09:39:00,28.0,21.4,30.45,North,5,2.3,2.3,76,0.00,CLR,,0.00,WeatherDisplay:10.37,2013-11-28 14:39:00,
2013-11-28 09:44:00,28.5,21.6,30.45,North,355,1.2,1.2,75,0.00,CLR,,0.00,WeatherDisplay:10.37,2013-11-28 14:44:00,
2013-11-28 09:49:00,29.1,21.8,30.45,NE,46,2.0,2.0,74,0.00,CLR,,0.00,WeatherDisplay:10.37,2013-11-28 14:49:00,
2013-11-28 09:54:00,29.9,22.6,30.45,North,5,2.3,2.3,74,0.00,CLR,,0.00,WeatherDisplay:10.37,2013-11-28 14:54:00,
2013-11-28 09:59:00,30.5,22.5,30.45,NNE,15,0.0,0.0,72,0.00,CLR,,0.00,WeatherDisplay:10.37,2013-11-28 14:59:00,
2013-11-28 10:04:00,31.1,22.5,30.45,NNE,15,0.0,0.0,70,0.00,CLR,,0.00,WeatherDisplay:10.37,2013-11-28 15:04:00,
2013-11-28 10:09:00,31.3,22.3,30.45,NNE,15,0.0,0.0,69,0.00,CLR,,0.00,WeatherDisplay:10.37,2013-11-28 15:09:00,
2013-11-28 10:14:00,31.7,22.3,30.45,NNE,15,0.0,0.0,68,0.00,CLR,,0.00,WeatherDisplay:10.37,2013-11-28 15:14:00,
2013-11-28 10:19:00,32.2,22.8,30.45,NNE,15,0.0,0.0,68,0.00,CLR,,0.00,WeatherDisplay:10.37,2013-11-28 15:19:00,
2013-11-28 10:24:00,33.1,24.4,30.45,NNE,15,0.0,0.0,70,0.00,CLR,,0.00,WeatherDisplay:10.37,2013-11-28 15:24:00,
2013-11-28 10:29:00,34.1,24.6,30.44,WSW,240,0.0,0.0,68,0.00,CLR,,0.00,WeatherDisplay:10.37,2013-11-28 15:29:00,
2013-11-28 10:34:00,34.7,23.0,30.44,WNW,291,0.0,0.0,62,0.00,CLR,,0.00,WeatherDisplay:10.37,2013-11-28 15:34:00,
2013-11-28 10:39:00,34.9,23.6,30.44,WNW,291,0.0,0.0,63,0.00,CLR,,0.00,WeatherDisplay:10.37,2013-11-28 15:39:00,
2013-11-28 10:44:00,34.9,23.6,30.44,WNW,291,0.0,0.0,63,0.00,CLR,,0.00,WeatherDisplay:10.37,2013-11-28 15:44:00,
2013-11-28 10:49:00,35.0,23.3,30.45,SW,214,2.3,2.3,62,0.00,CLR,,0.00,WeatherDisplay:10.37,2013-11-28 15:49:00,
2013-11-28 10:54:00,35.5,23.8,30.45,West,280,1.2,1.2,62,0.00,CLR,,0.00,WeatherDisplay:10.37,2013-11-28 15:54:00,
2013-11-28 10:59:00,36.1,23.5,30.44,WNW,302,1.2,1.2,60,0.00,CLR,,0.00,WeatherDisplay:10.37,2013-11-28 15:59:00,
2013-11-28 11:04:00,36.1,21.9,30.44,NNW,338,2.3,2.3,56,0.00,CLR,,0.00,WeatherDisplay:10.37,2013-11-28 16:04:00,
2013-11-28 11:09:00,36.4,23.4,30.44,NNW,338,0.0,0.0,59,0.00,CLR,,0.00,WeatherDisplay:10.37,2013-11-28 16:09:00,
2013-11-28 11:14:00,36.7,23.3,30.44,NW,325,2.3,2.3,58,0.00,CLR,,0.00,WeatherDisplay:10.37,2013-11-28 16:14:00,
2013-11-28 11:19:00,37.0,21.9,30.44,NW,325,2.3,2.3,54,0.00,CLR,,0.00,WeatherDisplay:10.37,2013-11-28 16:19:00,
2013-11-28 11:24:00,37.3,23.0,30.44,NW,325,0.0,0.0,56,0.00,CLR,,0.00,WeatherDisplay:10.37,2013-11-28 16:24:00,
2013-11-28 11:29:00,37.8,22.2,30.44,NW,326,1.2,0.0,53,0.00,CLR,,0.00,WeatherDisplay:10.37,2013-11-28 16:29:00,
2013-11-28 11:34:00,38.1,22.9,30.44,SW,215,2.3,2.3,54,0.00,CLR,,0.00,WeatherDisplay:10.37,2013-11-28 16:34:00,
2013-11-28 11:39:00,38.3,23.5,30.44,WNW,296,0.0,0.0,55,0.00,CLR,,0.00,WeatherDisplay:10.37,2013-11-28 16:39:00,
2013-11-28 11:44:00,38.5,23.7,30.44,WSW,238,2.3,2.3,55,0.00,CLR,,0.00,WeatherDisplay:10.37,2013-11-28 16:44:00,
2013-11-28 11:49:00,38.8,24.0,30.44,WSW,238,0.0,0.0,55,0.00,CLR,,0.00,WeatherDisplay:10.37,2013-11-28 16:49:00,
2013-11-28 11:54:00,39.0,22.8,30.43,WSW,238,0.0,0.0,52,0.00,CLR,,0.00,WeatherDisplay:10.37,2013-11-28 16:54:00,
2013-11-28 11:59:00,39.0,23.7,30.43,SW,222,2.3,2.3,54,0.00,CLR,,0.00,WeatherDisplay:10.37,2013-11-28 16:59:00,
2013-11-28 12:04:00,39.3,23.6,30.43,WNW,296,1.2,1.2,53,0.00,CLR,,0.00,WeatherDisplay:10.37,2013-11-28 17:04:00,
2013-11-28 12:09:00,39.5,22.8,30.43,NW,314,0.0,0.0,51,0.00,CLR,,0.00,WeatherDisplay:10.37,2013-11-28 17:09:00,
2013-11-28 12:14:00,39.7,23.5,30.43,NNW,340,2.0,2.0,52,0.00,CLR,,0.00,WeatherDisplay:10.37,2013-11-28 17:14:00,
2013-11-28 12:19:00,39.8,23.1,30.42,West,261,2.3,2.3,51,0.00,CLR,,0.00,WeatherDisplay:10.37,2013-11-28 17:19:00,
2013-11-28 12:24:00,40.0,24.2,30.42,West,273,1.2,1.2,53,0.00,CLR,,0.00,WeatherDisplay:10.37,2013-11-28 17:24:00,
2013-11-28 12:29:00,40.2,23.0,30.42,WNW,294,5.8,5.8,50,0.00,CLR,,0.00,WeatherDisplay:10.37,2013-11-28 17:29:00,
2013-11-28 12:34:00,40.4,22.2,30.42,WSW,241,2.3,2.3,48,0.00,CLR,,0.00,WeatherDisplay:10.37,2013-11-28 17:34:00,
2013-11-28 12:39:00,40.5,22.3,30.41,NW,323,1.2,1.2,48,0.00,CLR,,0.00,WeatherDisplay:10.37,2013-11-28 17:39:00,
2013-11-28 12:44:00,40.7,22.5,30.41,WSW,251,1.2,1.2,48,0.00,CLR,,0.00,WeatherDisplay:10.37,2013-11-28 17:44:00,
2013-11-28 12:49:00,40.8,23.1,30.41,NW,304,0.0,0.0,49,0.00,CLR,,0.00,WeatherDisplay:10.37,2013-11-28 17:49:00,
2013-11-28 12:54:00,40.9,22.7,30.41,West,275,3.5,3.5,48,0.00,CLR,,0.00,WeatherDisplay:10.37,2013-11-28 17:54:00,
2013-11-28 12:59:00,41.1,22.9,30.41,North,355,3.5,3.5,48,0.00,CLR,,0.00,WeatherDisplay:10.37,2013-11-28 17:59:00,
2013-11-28 13:04:00,41.2,22.0,30.41,North,355,2.3,2.3,46,0.00,CLR,,0.00,WeatherDisplay:10.37,2013-11-28 18:04:00,
2013-11-28 13:09:00,41.4,22.7,30.41,SW,225,3.5,3.5,47,0.00,CLR,,0.00,WeatherDisplay:10.37,2013-11-28 18:09:00,
2013-11-28 13:14:00,41.7,23.4,30.41,WSW,238,3.5,3.5,48,0.00,CLR,,0.00,WeatherDisplay:10.37,2013-11-28 18:14:00,
2013-11-28 13:19:00,41.9,23.1,30.40,NE,38,1.2,1.2,47,0.00,CLR,,0.00,WeatherDisplay:10.37,2013-11-28 18:19:00,
2013-11-28 13:24:00,42.0,23.2,30.40,ENE,63,2.3,2.3,47,0.00,CLR,,0.00,WeatherDisplay:10.37,2013-11-28 18:24:00,
2013-11-28 13:29:00,42.2,22.9,30.40,WNW,302,2.3,2.3,46,0.00,CLR,,0.00,WeatherDisplay:10.37,2013-11-28 18:29:00,
2013-11-28 13:34:00,42.4,23.1,30.40,SW,234,6.9,6.9,46,0.00,CLR,,0.00,WeatherDisplay:10.37,2013-11-28 18:34:00,
2013-11-28 13:39:00,42.6,22.7,30.40,West,275,0.0,0.0,45,0.00,CLR,,0.00,WeatherDisplay:10.37,2013-11-28 18:39:00,
2013-11-28 13:44:00,42.7,22.8,30.40,South,189,2.0,2.0,45,0.00,CLR,,0.00,WeatherDisplay:10.37,2013-11-28 18:44:00,
2013-11-28 13:49:00,42.9,24.5,30.40,SW,217,0.0,0.0,48,0.00,CLR,,0.00,WeatherDisplay:10.37,2013-11-28 18:49:00,
2013-11-28 13:54:00,42.9,23.0,30.40,WNW,282,2.3,2.3,45,0.00,CLR,,0.00,WeatherDisplay:10.37,2013-11-28 18:54:00,
2013-11-28 13:59:00,43.1,22.6,30.39,NNW,340,2.3,2.3,44,0.00,CLR,,0.00,WeatherDisplay:10.37,2013-11-28 18:59:00,
2013-11-28 14:04:00,43.2,23.8,30.39,NNW,340,0.0,0.0,46,0.00,CLR,,0.00,WeatherDisplay:10.37,2013-11-28 19:04:00,
2013-11-28 14:09:00,43.4,23.4,30.39,NW,323,2.3,2.3,45,0.00,CLR,,0.00,WeatherDisplay:10.37,2013-11-28 19:09:00,
2013-11-28 14:14:00,43.7,23.2,30.39,NW,317,0.0,0.0,44,0.00,CLR,,0.00,WeatherDisplay:10.37,2013-11-28 19:14:00,
2013-11-28 14:19:00,43.8,23.8,30.39,NW,306,3.5,3.5,45,0.00,CLR,,0.00,WeatherDisplay:10.37,2013-11-28 19:19:00,
2013-11-28 14:24:00,44.0,22.9,30.39,NNW,340,3.0,3.0,43,0.00,CLR,,0.00,WeatherDisplay:10.37,2013-11-28 19:24:00,
2013-11-28 14:29:00,44.2,23.6,30.39,North,351,0.0,0.0,44,0.00,CLR,,0.00,WeatherDisplay:10.37,2013-11-28 19:29:00,
2013-11-28 14:34:00,44.3,22.6,30.39,North,350,1.2,1.2,42,0.00,CLR,,0.00,WeatherDisplay:10.37,2013-11-28 19:34:00,
2013-11-28 14:39:00,44.6,22.9,30.39,WNW,291,3.5,3.5,42,0.00,CLR,,0.00,WeatherDisplay:10.37,2013-11-28 19:39:00,
2013-11-28 14:44:00,44.9,23.7,30.40,West,263,5.8,5.8,43,0.00,CLR,,0.00,WeatherDisplay:10.37,2013-11-28 19:44:00,
2013-11-28 14:49:00,45.1,23.9,30.40,WSW,244,3.5,3.5,43,0.00,CLR,,0.00,WeatherDisplay:10.37,2013-11-28 19:49:00,
2013-11-28 14:54:00,45.2,23.4,30.40,WSW,258,3.5,3.5,42,0.00,CLR,,0.00,WeatherDisplay:10.37,2013-11-28 19:54:00,
2013-11-28 14:59:00,45.4,23.0,30.40,NW,321,2.3,2.3,41,0.00,CLR,,0.00,WeatherDisplay:10.37,2013-11-28 19:59:00,
2013-11-28 15:04:00,45.5,22.5,30.40,WSW,252,2.3,2.3,40,0.00,CLR,,0.00,WeatherDisplay:10.37,2013-11-28 20:04:00,
2013-11-28 15:09:00,45.5,22.5,30.40,SW,224,0.0,0.0,40,0.00,CLR,,0.00,WeatherDisplay:10.37,2013-11-28 20:09:00,
2013-11-28 15:14:00,45.6,22.6,30.40,SW,235,3.5,3.5,40,0.00,CLR,,0.00,WeatherDisplay:10.37,2013-11-28 20:14:00,
2013-11-28 15:19:00,45.7,23.3,30.40,West,277,1.2,1.2,41,0.00,CLR,,0.00,WeatherDisplay:10.37,2013-11-28 20:19:00,
2013-11-28 15:24:00,45.8,24.5,30.40,West,264,1.2,1.2,43,0.00,CLR,,0.00,WeatherDisplay:10.37,2013-11-28 20:24:00,
2013-11-28 15:29:00,45.9,24.6,30.40,West,264,3.5,3.5,43,0.00,CLR,,0.00,WeatherDisplay:10.37,2013-11-28 20:29:00,
2013-11-28 15:34:00,45.9,24.1,30.40,West,277,2.0,2.0,42,0.00,CLR,,0.00,WeatherDisplay:10.37,2013-11-28 20:34:00,
2013-11-28 15:39:00,46.0,24.2,30.40,West,277,1.2,1.2,42,0.00,CLR,,0.00,WeatherDisplay:10.37,2013-11-28 20:39:00,
2013-11-28 15:44:00,46.0,24.2,30.40,West,263,3.5,3.5,42,0.00,CLR,,0.00,WeatherDisplay:10.37,2013-11-28 20:44:00,
2013-11-28 15:49:00,45.9,24.1,30.40,West,267,3.5,3.5,42,0.00,CLR,,0.00,WeatherDisplay:10.37,2013-11-28 20:49:00,
2013-11-28 15:54:00,46.0,24.7,30.40,WNW,283,2.3,2.3,43,0.00,CLR,,0.00,WeatherDisplay:10.37,2013-11-28 20:54:00,
2013-11-28 15:59:00,46.0,24.2,30.41,WSW,245,1.2,1.2,42,0.00,CLR,,0.00,WeatherDisplay:10.37,2013-11-28 20:59:00,
2013-11-28 16:04:00,46.0,23.6,30.41,WSW,242,2.3,2.3,41,0.00,CLR,,0.00,WeatherDisplay:10.37,2013-11-28 21:04:00,
2013-11-28 16:09:00,46.0,24.7,30.41,NW,309,0.0,0.0,43,0.00,CLR,,0.00,WeatherDisplay:10.37,2013-11-28 21:09:00,
2013-11-28 16:14:00,45.9,24.1,30.41,WSW,255,1.0,0.0,42,0.00,CLR,,0.00,WeatherDisplay:10.37,2013-11-28 21:14:00,
2013-11-28 16:19:00,45.9,24.6,30.41,WNW,298,2.3,2.3,43,0.00,CLR,,0.00,WeatherDisplay:10.37,2013-11-28 21:19:00,
2013-11-28 16:24:00,45.9,24.6,30.41,West,281,2.3,2.3,43,0.00,CLR,,0.00,WeatherDisplay:10.37,2013-11-28 21:24:00,
2013-11-28 16:29:00,45.8,24.5,30.41,NW,313,0.0,0.0,43,0.00,CLR,,0.00,WeatherDisplay:10.37,2013-11-28 21:29:00,
2013-11-28 16:34:00,45.7,25.0,30.41,NW,313,1.2,1.2,44,0.00,CLR,,0.00,WeatherDisplay:10.37,2013-11-28 21:34:00,
2013-11-28 16:39:00,45.5,24.3,30.41,WSW,247,0.0,0.0,43,0.00,CLR,,0.00,WeatherDisplay:10.37,2013-11-28 21:39:00,
2013-11-28 16:44:00,45.4,25.3,30.41,WNW,292,2.3,2.3,45,0.00,CLR,,0.00,WeatherDisplay:10.37,2013-11-28 21:44:00,
2013-11-28 16:49:00,45.2,25.1,30.41,WNW,292,0.0,0.0,45,0.00,CLR,,0.00,WeatherDisplay:10.37,2013-11-28 21:49:00,
2013-11-28 16:54:00,45.1,24.5,30.41,WNW,292,0.0,0.0,44,0.00,CLR,,0.00,WeatherDisplay:10.37,2013-11-28 21:54:00,
2013-11-28 16:59:00,44.9,25.3,30.41,WNW,292,0.0,0.0,46,0.00,CLR,,0.00,WeatherDisplay:10.37,2013-11-28 21:59:00,
2013-11-28 17:04:00,44.7,25.2,30.41,WNW,292,0.0,0.0,46,0.00,CLR,,0.00,WeatherDisplay:10.37,2013-11-28 22:04:00,
2013-11-28 17:09:00,44.4,24.4,30.41,WNW,292,0.0,0.0,45,0.00,CLR,,0.00,WeatherDisplay:10.37,2013-11-28 22:09:00,
2013-11-28 17:14:00,44.2,25.2,30.41,WNW,292,0.0,0.0,47,0.00,CLR,,0.00,WeatherDisplay:10.37,2013-11-28 22:14:00,
2013-11-28 17:19:00,43.9,24.9,30.41,WNW,292,0.0,0.0,47,0.00,CLR,,0.00,WeatherDisplay:10.37,2013-11-28 22:19:00,
2013-11-28 17:24:00,43.6,24.2,30.41,WNW,292,0.0,0.0,46,0.00,CLR,,0.00,WeatherDisplay:10.37,2013-11-28 22:24:00,
2013-11-28 17:29:00,43.3,24.4,30.41,WNW,292,0.0,0.0,47,0.00,CLR,,0.00,WeatherDisplay:10.37,2013-11-28 22:29:00,
2013-11-28 17:34:00,43.1,25.2,30.42,WNW,292,0.0,0.0,49,0.00,CLR,,0.00,WeatherDisplay:10.37,2013-11-28 22:34:00,
2013-11-28 17:39:00,42.8,24.9,30.42,WNW,292,0.0,0.0,49,0.00,CLR,,0.00,WeatherDisplay:10.37,2013-11-28 22:39:00,
2013-11-28 17:44:00,42.5,24.7,30.42,WNW,292,0.0,0.0,49,0.00,CLR,,0.00,WeatherDisplay:10.37,2013-11-28 22:44:00,
2013-11-28 17:49:00,42.2,24.4,30.42,WNW,292,0.0,0.0,49,0.00,CLR,,0.00,WeatherDisplay:10.37,2013-11-28 22:49:00,
2013-11-28 17:54:00,41.9,25.1,30.42,WNW,292,0.0,0.0,51,0.00,CLR,,0.00,WeatherDisplay:10.37,2013-11-28 22:54:00,
2013-11-28 17:59:00,41.6,24.3,30.42,WNW,292,0.0,0.0,50,0.00,CLR,,0.00,WeatherDisplay:10.37,2013-11-28 22:59:00,
2013-11-28 18:04:00,41.3,25.0,30.42,WNW,292,0.0,0.0,52,0.00,CLR,,0.00,WeatherDisplay:10.37,2013-11-28 23:04:00,
2013-11-28 18:09:00,40.9,26.0,30.43,WNW,292,0.0,0.0,55,0.00,CLR,,0.00,WeatherDisplay:10.37,2013-11-28 23:09:00,
2013-11-28 18:14:00,40.6,26.1,30.43,WNW,292,0.0,0.0,56,0.00,CLR,,0.00,WeatherDisplay:10.37,2013-11-28 23:14:00,
2013-11-28 18:19:00,40.4,26.8,30.43,WNW,292,0.0,0.0,58,0.00,CLR,,0.00,WeatherDisplay:10.37,2013-11-28 23:19:00,
2013-11-28 18:24:00,40.0,27.2,30.43,WNW,292,0.0,0.0,60,0.00,CLR,,0.00,WeatherDisplay:10.37,2013-11-28 23:24:00,
2013-11-28 18:29:00,39.5,27.9,30.43,WNW,292,0.0,0.0,63,0.00,CLR,,0.00,WeatherDisplay:10.37,2013-11-28 23:29:00,
2013-11-28 18:34:00,38.9,28.1,30.43,WNW,292,0.0,0.0,65,0.00,CLR,,0.00,WeatherDisplay:10.37,2013-11-28 23:34:00,
2013-11-28 18:39:00,38.4,28.0,30.44,WNW,292,0.0,0.0,66,0.00,CLR,,0.00,WeatherDisplay:10.37,2013-11-28 23:39:00,
2013-11-28 18:44:00,38.0,28.4,30.44,WNW,292,0.0,0.0,68,0.00,CLR,,0.00,WeatherDisplay:10.37,2013-11-28 23:44:00,
2013-11-28 18:49:00,37.6,28.3,30.44,WNW,292,0.0,0.0,69,0.00,CLR,,0.00,WeatherDisplay:10.37,2013-11-28 23:49:00,
2013-11-28 18:54:00,37.1,28.2,30.44,WNW,292,0.0,0.0,70,0.00,CLR,,0.00,WeatherDisplay:10.37,2013-11-28 23:54:00,
2013-11-28 18:59:00,36.9,27.7,30.44,WNW,292,0.0,0.0,69,0.00,CLR,,0.00,WeatherDisplay:10.37,2013-11-28 23:59:00,
2013-11-28 19:04:00,36.6,27.7,30.45,WNW,292,0.0,0.0,70,0.00,CLR,,0.00,WeatherDisplay:10.37,2013-11-29 00:04:00,
2013-11-28 19:09:00,36.3,28.1,30.45,WNW,292,0.0,0.0,72,0.00,CLR,,0.00,WeatherDisplay:10.37,2013-11-29 00:09:00,
2013-11-28 19:14:00,35.9,28.1,30.45,WNW,292,0.0,0.0,73,0.00,CLR,,0.00,WeatherDisplay:10.37,2013-11-29 00:14:00,
2013-11-28 19:19:00,35.6,27.8,30.45,WNW,292,0.0,0.0,73,0.00,CLR,,0.00,WeatherDisplay:10.37,2013-11-29 00:19:00,
2013-11-28 19:24:00,35.4,27.9,30.45,WNW,292,0.0,0.0,74,0.00,CLR,,0.00,WeatherDisplay:10.37,2013-11-29 00:24:00,
2013-11-28 19:29:00,35.1,27.6,30.45,WNW,292,0.0,0.0,74,0.00,CLR,,0.00,WeatherDisplay:10.37,2013-11-29 00:29:00,
2013-11-28 19:34:00,34.8,27.4,30.45,WNW,292,0.0,0.0,74,0.00,CLR,,0.00,WeatherDisplay:10.37,2013-11-29 00:34:00,
2013-11-28 19:39:00,34.5,27.1,30.45,WNW,292,0.0,0.0,74,0.00,CLR,,0.00,WeatherDisplay:10.37,2013-11-29 00:39:00,
2013-11-28 19:44:00,34.3,26.5,30.45,WNW,292,0.0,0.0,73,0.00,CLR,,0.00,WeatherDisplay:10.37,2013-11-29 00:44:00,
2013-11-28 19:49:00,34.1,27.0,30.45,WNW,292,0.0,0.0,75,0.00,CLR,,0.00,WeatherDisplay:10.37,2013-11-29 00:49:00,
2013-11-28 19:54:00,33.9,27.1,30.45,WNW,292,0.0,0.0,76,0.00,CLR,,0.00,WeatherDisplay:10.37,2013-11-29 00:54:00,
2013-11-28 19:59:00,33.7,26.9,30.45,WNW,292,0.0,0.0,76,0.00,CLR,,0.00,WeatherDisplay:10.37,2013-11-29 00:59:00,
2013-11-28 20:04:00,33.5,27.4,30.45,WNW,292,0.0,0.0,78,0.00,CLR,,0.00,WeatherDisplay:10.37,2013-11-29 01:04:00,
2013-11-28 20:09:00,33.3,27.2,30.45,WNW,292,0.0,0.0,78,0.00,CLR,,0.00,WeatherDisplay:10.37,2013-11-29 01:09:00,
2013-11-28 20:14:00,33.1,27.0,30.46,WNW,292,0.0,0.0,78,0.00,CLR,,0.00,WeatherDisplay:10.37,2013-11-29 01:14:00,
2013-11-28 20:19:00,32.9,26.8,30.46,WNW,292,0.0,0.0,78,0.00,CLR,,0.00,WeatherDisplay:10.37,2013-11-29 01:19:00,
2013-11-28 20:24:00,32.6,26.5,30.47,WNW,292,0.0,0.0,78,0.00,CLR,,0.00,WeatherDisplay:10.37,2013-11-29 01:24:00,
2013-11-28 20:29:00,32.4,26.3,30.47,WNW,292,0.0,0.0,78,0.00,CLR,,0.00,WeatherDisplay:10.37,2013-11-29 01:29:00,
2013-11-28 20:34:00,32.1,26.3,30.47,WNW,292,0.0,0.0,79,0.00,CLR,,0.00,WeatherDisplay:10.37,2013-11-29 01:34:00,
2013-11-28 20:39:00,32.0,26.2,30.47,WNW,292,0.0,0.0,79,0.00,CLR,,0.00,WeatherDisplay:10.37,2013-11-29 01:39:00,
2013-11-28 20:44:00,31.9,26.1,30.47,WNW,292,0.0,0.0,79,0.00,CLR,,0.00,WeatherDisplay:10.37,2013-11-29 01:44:00,
2013-11-28 20:49:00,31.8,26.0,30.47,WNW,292,0.0,0.0,79,0.00,CLR,,0.00,WeatherDisplay:10.37,2013-11-29 01:49:00,
2013-11-28 20:54:00,31.6,26.1,30.47,WNW,292,0.0,0.0,80,0.00,CLR,,0.00,WeatherDisplay:10.37,2013-11-29 01:54:00,
2013-11-28 20:59:00,31.5,26.3,30.47,WNW,292,0.0,0.0,81,0.00,CLR,,0.00,WeatherDisplay:10.37,2013-11-29 01:59:00,
2013-11-28 21:04:00,31.4,26.5,30.47,WNW,292,0.0,0.0,82,0.00,CLR,,0.00,WeatherDisplay:10.37,2013-11-29 02:04:00,
2013-11-28 21:09:00,31.2,26.0,30.47,WNW,292,0.0,0.0,81,0.00,CLR,,0.00,WeatherDisplay:10.37,2013-11-29 02:09:00,
2013-11-28 21:14:00,31.0,25.9,30.47,WNW,292,0.0,0.0,81,0.00,CLR,,0.00,WeatherDisplay:10.37,2013-11-29 02:14:00,
2013-11-28 21:19:00,30.9,25.8,30.47,WNW,292,0.0,0.0,81,0.00,CLR,,0.00,WeatherDisplay:10.37,2013-11-29 02:19:00,
2013-11-28 21:24:00,30.8,26.0,30.47,WNW,292,0.0,0.0,82,0.00,CLR,,0.00,WeatherDisplay:10.37,2013-11-29 02:24:00,
2013-11-28 21:29:00,30.7,25.9,30.48,WNW,292,0.0,0.0,82,0.00,CLR,,0.00,WeatherDisplay:10.37,2013-11-29 02:29:00,
2013-11-28 21:34:00,30.6,26.1,30.48,WNW,292,0.0,0.0,83,0.00,CLR,,0.00,WeatherDisplay:10.37,2013-11-29 02:34:00,
2013-11-28 21:39:00,30.6,26.3,30.48,WNW,292,0.0,0.0,84,0.00,CLR,,0.00,WeatherDisplay:10.37,2013-11-29 02:39:00,
2013-11-28 21:44:00,30.5,26.2,30.48,WNW,292,0.0,0.0,84,0.00,CLR,,0.00,WeatherDisplay:10.37,2013-11-29 02:44:00,
2013-11-28 21:49:00,30.4,26.1,30.48,WNW,292,0.0,0.0,84,0.00,CLR,,0.00,WeatherDisplay:10.37,2013-11-29 02:49:00,
2013-11-28 21:54:00,30.2,25.9,30.48,WNW,292,0.0,0.0,84,0.00,CLR,,0.00,WeatherDisplay:10.37,2013-11-29 02:54:00,
2013-11-28 21:59:00,30.1,25.8,30.48,WNW,292,0.0,0.0,84,0.00,CLR,,0.00,WeatherDisplay:10.37,2013-11-29 02:59:00,
2013-11-28 22:04:00,30.0,25.8,30.48,WNW,292,0.0,0.0,84,0.00,CLR,,0.00,WeatherDisplay:10.37,2013-11-29 03:04:00,
2013-11-28 22:09:00,29.9,25.7,30.48,WNW,292,0.0,0.0,84,0.00,CLR,,0.00,WeatherDisplay:10.37,2013-11-29 03:09:00,
2013-11-28 22:14:00,29.9,25.9,30.48,WNW,292,0.0,0.0,85,0.00,CLR,,0.00,WeatherDisplay:10.37,2013-11-29 03:14:00,
2013-11-28 22:19:00,29.7,25.5,30.48,WNW,292,0.0,0.0,84,0.00,CLR,,0.00,WeatherDisplay:10.37,2013-11-29 03:19:00,
2013-11-28 22:24:00,29.6,25.4,30.48,WNW,292,0.0,0.0,84,0.00,CLR,,0.00,WeatherDisplay:10.37,2013-11-29 03:24:00,
2013-11-28 22:29:00,29.6,25.4,30.48,WNW,292,0.0,0.0,84,0.00,CLR,,0.00,WeatherDisplay:10.37,2013-11-29 03:29:00,
2013-11-28 22:34:00,29.6,25.6,30.48,WNW,292,0.0,0.0,85,0.00,CLR,,0.00,WeatherDisplay:10.37,2013-11-29 03:34:00,
2013-11-28 22:39:00,29.5,25.5,30.48,WNW,292,0.0,0.0,85,0.00,CLR,,0.00,WeatherDisplay:10.37,2013-11-29 03:39:00,
2013-11-28 22:44:00,29.5,25.8,30.48,WNW,292,0.0,0.0,86,0.00,CLR,,0.00,WeatherDisplay:10.37,2013-11-29 03:44:00,
2013-11-28 22:49:00,29.5,26.1,30.48,WNW,292,0.0,0.0,87,0.00,CLR,,0.00,WeatherDisplay:10.37,2013-11-29 03:49:00,
2013-11-28 22:54:00,29.4,26.0,30.48,WNW,292,0.0,0.0,87,0.00,CLR,,0.00,WeatherDisplay:10.37,2013-11-29 03:54:00,
2013-11-28 22:59:00,29.4,26.0,30.48,WNW,292,0.0,0.0,87,0.00,CLR,,0.00,WeatherDisplay:10.37,2013-11-29 03:59:00,
2013-11-28 23:04:00,29.4,26.0,30.48,WNW,292,0.0,0.0,87,0.00,CLR,,0.00,WeatherDisplay:10.37,2013-11-29 04:04:00,
2013-11-28 23:09:00,29.3,25.9,30.49,WNW,292,0.0,0.0,87,0.00,CLR,,0.00,WeatherDisplay:10.37,2013-11-29 04:09:00,
2013-11-28 23:14:00,29.3,25.9,30.49,WNW,292,0.0,0.0,87,0.00,CLR,,0.00,WeatherDisplay:10.37,2013-11-29 04:14:00,
2013-11-28 23:19:00,29.2,25.5,30.49,WNW,292,0.0,0.0,86,0.00,CLR,,0.00,WeatherDisplay:10.37,2013-11-29 04:19:00,
2013-11-28 23:24:00,29.0,25.3,30.49,WNW,292,0.0,0.0,86,0.00,CLR,,0.00,WeatherDisplay:10.37,2013-11-29 04:24:00,
2013-11-28 23:29:00,29.0,25.6,30.49,WNW,292,0.0,0.0,87,0.00,CLR,,0.00,WeatherDisplay:10.37,2013-11-29 04:29:00,
2013-11-28 23:34:00,29.0,25.6,30.49,WNW,292,0.0,0.0,87,0.00,CLR,,0.00,WeatherDisplay:10.37,2013-11-29 04:34:00,
2013-11-28 23:39:00,29.0,25.6,30.49,WNW,292,0.0,0.0,87,0.00,CLR,,0.00,WeatherDisplay:10.37,2013-11-29 04:39:00,
2013-11-28 23:44:00,29.0,25.9,30.49,WNW,292,0.0,0.0,88,0.00,CLR,,0.00,WeatherDisplay:10.37,2013-11-29 04:44:00,
2013-11-28 23:49:00,29.0,25.9,30.49,WNW,292,0.0,0.0,88,0.00,CLR,,0.00,WeatherDisplay:10.37,2013-11-29 04:49:00,
2013-11-28 23:54:00,29.0,25.9,30.49,WNW,292,0.0,0.0,88,0.00,CLR,,0.00,WeatherDisplay:10.37,2013-11-29 04:54:00,
2013-11-28 23:59:00,29.0,25.9,30.49,WNW,292,0.0,0.0,88,0.00,CLR,,0.00,WeatherDisplay:10.37,2013-11-29 04:59:00,